Weather Roundup
Issued by NWS Springfield, MO

Home | Current Version | Previous Version | Text Only | Print | Product List | Glossary On
Versions: 1 2 3 4 5 6 7 8 9 10 11 12 13 14 15 16 17 18 19 20 21 22 23 24 25 26 27 28 29 30 31 32 33 34 35 36 37 38 39 40 41 42 43 44 45 46 47 48 49 50
000
NZUS99 KSGF 280857
HRRSGF

HOURLY WEATHER
NATIONAL WEATHER SERVICE SPRINGFIELD MO
400 AM CDT THU JUL 28 2016

......SGF CWA......

CITY           SKY/WX    TMP DP  RH WIND       PRES   REMARKS
SPRINGFIELD    CLEAR     72  69  90 S3        29.95S
JOPLIN         CLEAR     72  70  93 S3        29.95S
WEST PLAINS    CLEAR     70  68  93 S3        29.95F
ROLLA          CLEAR     69  68  96 SW5       29.91S

......SURROUNDING SGF CWA......

CITY           SKY/WX    TMP DP  RH WIND       PRES   REMARKS
CHANUTE        CLEAR     75  73  93 S3        29.94S
PARSONS        CLEAR     74  73  97 CALM      29.95S
COFFEYVILLE    CLEAR     75  74  96 CALM      29.94S
EMPORIA        MOCLDY    74  72  93 CALM      29.96F
HARRISON AR    PTCLDY    71  69  93 W5        29.97S

......KANSAS AND MISSOURI......

CITY           SKY/WX    TMP DP  RH WIND       PRES   REMARKS
KANSAS CTY INT PTCLDY    71  70  96 CALM      29.94R
SEDALIA        CLEAR     74  71  91 NW3       29.92F
ST JOSEPH      CLEAR     70  68  93 CALM      29.94R FOG
ST LOUIS       PTCLDY    78  72  81 W5        29.88F
WICHITA        CLOUDY    75  71  87 SW3       29.97F
TOPEKA         PTCLDY    72  69  90 CALM      29.95S
OLATHE         PTCLDY    75  70  84 W3        29.94S

......TENNESSEE......

CITY           SKY/WX    TMP DP  RH WIND       PRES   REMARKS
MEMPHIS        NOT AVBL
NASHVILLE      CLOUDY    75  71  87 CALM      29.93F

......ARKANSAS.......

CITY           SKY/WX    TMP DP  RH WIND       PRES   REMARKS
FAYETTEVILLE   CLEAR     69  69 100 S3        29.98S
FT SMITH       CLEAR     75  71  87 S3        29.94S
LITTLE ROCK    CLOUDY    78  73  84 S6        29.94S

......OKLAHOMA.......

CITY           SKY/WX    TMP DP  RH WIND       PRES   REMARKS
TULSA          PTCLDY    76  75  97 CALM      29.93R
PONCA CITY     CLEAR     71  68  90 CALM      29.95F
MCALESTER      PTCLDY    73  70  90 E3        29.96R
OKLAHOMA CITY  PTCLDY    73  72  96 CALM      29.96R

......IOWA............

CITY           SKY/WX    TMP DP  RH WIND       PRES   REMARKS
DES MOINES     NOT AVBL
QUAD CITIES    PTCLDY    71  67  87 CALM      29.88F

......ILLINOIS........

CITY           SKY/WX    TMP DP  RH WIND       PRES   REMARKS
QUINCY         NOT AVBL
CHICAGO        PTCLDY    72  65  78 CALM      29.89F




USA.gov is the U.S. government's official web portal to all federal, state and local government web resources and services.